When you browse on this site, cookies collect data to enhance your experience and personalize the content and advertising you see.
Visit our Privacy Policy to learn more. By continuing to use the site, you agree to this use of cookies and data.
  • In Spain
  • List of Countries
  • For 7 days
  • Water Temperature
  • Satellite Maps
  • Weather Map
  • Weather Widgets
  • user-avatar
    Login

    Hourly Weather Rudy

    Today, 16 February, Saturday

    Time Temperature Precipitation Wind Pressure Humidity
    00:00 +2°C° 0 mm 2 mps 768 mmHg 90%
    01:00 +2°C° 0 mm 2 mps 768 mmHg 89%
    02:00 +2°C° 0 mm 2 mps 768 mmHg 88%
    03:00 +2°C° 0 mm 2 mps 767 mmHg 86%
    04:00 +2°C° 0 mm 2 mps 767 mmHg 85%
    05:00 +2°C° 0 mm 2 mps 767 mmHg 84%
    06:00 +2°C° 0 mm 2 mps 767 mmHg 83%
    07:00 +1°C° 0 mm 2 mps 766 mmHg 83%
    08:00 +2°C° 0 mm 3 mps 766 mmHg 76%
    09:00 +3°C° 0 mm 3 mps 766 mmHg 70%
    10:00 +5°C° 0 mm 3 mps 766 mmHg 63%
    11:00 +6°C° 0 mm 4 mps 765 mmHg 60%
    12:00 +7°C° 0 mm 4 mps 765 mmHg 56%
    13:00 +8°C° 0 mm 4 mps 765 mmHg 53%
    14:00 +8°C° 0 mm 4 mps 764 mmHg 54%
    15:00 +8°C° 0 mm 4 mps 764 mmHg 55%
    16:00 +8°C° 0 mm 4 mps 764 mmHg 56%
    17:00 +7°C° 0 mm 4 mps 763 mmHg 60%
    18:00 +6°C° 0 mm 4 mps 763 mmHg 64%
    19:00 +5°C° 0 mm 4 mps 763 mmHg 67%
    20:00 +5°C° 0 mm 4 mps 763 mmHg 69%
    21:00 +5°C° 0 mm 4 mps 763 mmHg 71%
    22:00 +4°C° 0 mm 4 mps 763 mmHg 73%
    23:00 +4°C° 0 mm 4 mps 763 mmHg 75%

    Tomorrow, 17 February, Sunday

    Time Temperature Precipitation Wind Pressure Humidity
    00:00 +3°C° 0 mm 3 mps 763 mmHg 78%
    01:00 +3°C° 0 mm 3 mps 763 mmHg 80%
    02:00 +3°C° 0 mm 3 mps 763 mmHg 82%
    03:00 +2°C° 0 mm 3 mps 762 mmHg 84%
    04:00 +2°C° 0 mm 3 mps 762 mmHg 86%
    05:00 +1°C° 0 mm 3 mps 762 mmHg 87%
    06:00 +1°C° 0 mm 3 mps 763 mmHg 89%
    07:00 +1°C° 0 mm 3 mps 763 mmHg 90%
    08:00 +2°C° 0 mm 3 mps 763 mmHg 87%
    09:00 +3°C° 0 mm 3 mps 763 mmHg 85%
    10:00 +4°C° 0 mm 3 mps 763 mmHg 83%
    11:00 +5°C° 0 mm 3 mps 763 mmHg 82%
    12:00 +5°C° 0 mm 3 mps 763 mmHg 82%
    13:00 +7°C° 0 mm 3 mps 763 mmHg 82%
    14:00 +7°C° 0 mm 2 mps 763 mmHg 83%
    15:00 +7°C° 0 mm 2 mps 763 mmHg 84%
    16:00 +7°C° 0 mm 2 mps 763 mmHg 85%
    17:00 +7°C° 0 mm 1 mps 763 mmHg 87%
    18:00 +7°C° 0 mm 1 mps 763 mmHg 89%
    19:00 +7°C° 0 mm 1 mps 763 mmHg 91%
    20:00 +5°C° 0 mm 0 mps 764 mmHg 91%
    21:00 +5°C° 0 mm 0 mps 764 mmHg 92%
    22:00 +4°C° 0 mm 0 mps 764 mmHg 92%
    23:00 +4°C° 0 mm 0 mps 764 mmHg 92%

    Day after tomorrow, 18 February, Monday

    Time Temperature Precipitation Wind Pressure Humidity
    00:00 +3°C° 0 mm 0 mps 764 mmHg 93%
    01:00 +3°C° 0 mm 0 mps 763 mmHg 93%
    02:00 +4°C° 0 mm 1 mps 763 mmHg 94%
    03:00 +4°C° 0 mm 1 mps 763 mmHg 94%
    04:00 +4°C° 0 mm 1 mps 763 mmHg 95%
    05:00 +4°C° 0 mm 1 mps 763 mmHg 95%
    06:00 +2°C° 0 mm 2 mps 763 mmHg 95%
    07:00 +2°C° 0 mm 2 mps 763 mmHg 95%
    08:00 +3°C° 0 mm 2 mps 763 mmHg 91%
    09:00 +4°C° 0 mm 3 mps 763 mmHg 86%
    10:00 +5°C° 0 mm 3 mps 763 mmHg 82%
    11:00 +7°C° 0 mm 3 mps 763 mmHg 76%
    12:00 +8°C° 0 mm 3 mps 762 mmHg 70%
    13:00 +9°C° 0 mm 3 mps 762 mmHg 64%
    14:00 +9°C° 0 mm 3 mps 762 mmHg 64%
    15:00 +9°C° 0 mm 3 mps 761 mmHg 64%
    16:00 +9°C° 0 mm 3 mps 761 mmHg 64%
    17:00 +8°C° 0 mm 3 mps 761 mmHg 69%
    18:00 +5°C° 0 mm 3 mps 761 mmHg 73%
    19:00 +4°C° 0 mm 3 mps 761 mmHg 77%
    20:00 +4°C° 0 mm 3 mps 761 mmHg 78%
    21:00 +3°C° 0 mm 3 mps 761 mmHg 79%
    22:00 +3°C° 0 mm 3 mps 760 mmHg 80%
    23:00 +3°C° 0 mm 3 mps 760 mmHg 80%

    19 February, Tuesday

    Time Temperature Precipitation Wind Pressure Humidity
    00:00 +2°C° 0 mm 3 mps 760 mmHg 81%
    01:00 +2°C° 0 mm 3 mps 760 mmHg 81%
    02:00 +2°C° 0 mm 3 mps 759 mmHg 82%
    03:00 +2°C° 0 mm 3 mps 759 mmHg 83%
    04:00 +1°C° 0 mm 3 mps 758 mmHg 84%
    05:00 +1°C° 0 mm 3 mps 758 mmHg 83%
    06:00 +1°C° 0 mm 3 mps 758 mmHg 83%
    07:00 +1°C° 0 mm 3 mps 758 mmHg 83%
    08:00 +2°C° 0 mm 3 mps 758 mmHg 79%
    09:00 +3°C° 0 mm 4 mps 758 mmHg 75%
    10:00 +4°C° 0 mm 4 mps 757 mmHg 72%
    11:00 +6°C° 0 mm 5 mps 757 mmHg 69%
    12:00 +7°C° 0 mm 5 mps 757 mmHg 66%
    13:00 +8°C° 0 mm 5 mps 756 mmHg 63%
    14:00 +8°C° 0 mm 5 mps 756 mmHg 64%
    15:00 +8°C° 0 mm 5 mps 756 mmHg 64%
    16:00 +8°C° 0 mm 4 mps 756 mmHg 65%
    17:00 +8°C° 0.3 mm 5 mps 756 mmHg 71%
    18:00 +7°C° 0.3 mm 5 mps 756 mmHg 77%
    19:00 +6°C° 0.3 mm 5 mps 756 mmHg 84%
    20:00 +6°C° 0 mm 5 mps 757 mmHg 85%
    21:00 +5°C° 0 mm 5 mps 757 mmHg 87%
    22:00 +3°C° 0 mm 5 mps 757 mmHg 88%
    23:00 +3°C° 0 mm 5 mps 757 mmHg 87%

    20 February, Wednesday

    Time Temperature Precipitation Wind Pressure Humidity
    00:00 +3°C° 0 mm 5 mps 757 mmHg 86%
    01:00 +3°C° 0 mm 5 mps 757 mmHg 85%
    02:00 +3°C° 0 mm 6 mps 758 mmHg 85%
    03:00 +2°C° 0 mm 6 mps 758 mmHg 85%
    04:00 +2°C° 0 mm 6 mps 758 mmHg 85%
    05:00 +2°C° 0 mm 6 mps 758 mmHg 84%
    06:00 +2°C° 0 mm 6 mps 758 mmHg 83%
    07:00 +2°C° 0 mm 6 mps 758 mmHg 82%
    08:00 +3°C° 0 mm 6 mps 759 mmHg 79%
    09:00 +3°C° 0 mm 6 mps 759 mmHg 77%
    10:00 +3°C° 0 mm 7 mps 759 mmHg 75%
    11:00 +3°C° 0 mm 6 mps 759 mmHg 74%
    12:00 +4°C° 0 mm 6 mps 760 mmHg 73%
    13:00 +4°C° 0 mm 6 mps 760 mmHg 73%
    14:00 +4°C° 0 mm 6 mps 760 mmHg 71%
    15:00 +6°C° 0 mm 5 mps 760 mmHg 70%
    16:00 +6°C° 0 mm 5 mps 760 mmHg 68%
    17:00 +6°C° 0 mm 4 mps 760 mmHg 72%
    18:00 +5°C° 0 mm 4 mps 760 mmHg 76%
    19:00 +5°C° 0 mm 3 mps 760 mmHg 80%
    20:00 +5°C° 0.1 mm 4 mps 760 mmHg 81%
    21:00 +5°C° 0.1 mm 4 mps 761 mmHg 83%
    22:00 +5°C° 0.1 mm 4 mps 761 mmHg 84%
    23:00 +5°C° 0.2 mm 4 mps 760 mmHg 85%

    21 February, Thursday

    Time Temperature Precipitation Wind Pressure Humidity
    00:00 +5°C° 0.2 mm 4 mps 760 mmHg 86%
    01:00 +5°C° 0.2 mm 4 mps 760 mmHg 87%
    02:00 +5°C° 0.3 mm 4 mps 760 mmHg 88%
    03:00 +5°C° 0.3 mm 4 mps 759 mmHg 89%
    04:00 +5°C° 0.3 mm 5 mps 759 mmHg 90%
    05:00 +5°C° 0.2 mm 5 mps 759 mmHg 90%
    06:00 +5°C° 0.2 mm 5 mps 759 mmHg 90%
    07:00 +5°C° 0.2 mm 5 mps 759 mmHg 91%
    08:00 +6°C° 0.1 mm 5 mps 759 mmHg 89%
    09:00 +6°C° 0.1 mm 5 mps 759 mmHg 87%
    10:00 +7°C° 0.1 mm 6 mps 759 mmHg 86%
    11:00 +7°C° 0.1 mm 6 mps 758 mmHg 85%
    12:00 +7°C° 0.1 mm 6 mps 758 mmHg 84%
    13:00 +7°C° 0.1 mm 6 mps 758 mmHg 83%
    14:00 +7°C° 0.9 mm 6 mps 758 mmHg 85%
    15:00 +5°C° 0.9 mm 6 mps 757 mmHg 87%
    16:00 +5°C° 0.9 mm 6 mps 757 mmHg 88%
    17:00 +6°C° 0.2 mm 5 mps 757 mmHg 88%
    18:00 +6°C° 0.2 mm 5 mps 757 mmHg 88%
    19:00 +6°C° 0.2 mm 5 mps 757 mmHg 88%
    20:00 +6°C° 0.1 mm 4 mps 757 mmHg 89%
    21:00 +6°C° 0.1 mm 4 mps 758 mmHg 89%
    22:00 +6°C° 0.1 mm 4 mps 758 mmHg 90%
    23:00 +5°C° 0.1 mm 4 mps 758 mmHg 88%
    Show more